| time (UTC) | temp C | wind direction | speed KPH | gust KPH | rain 1hr cm | rain 24hr cm | rain mn cm | humidity % | barometer mb |
| 20260504081754 | 6 | 34 | 0.0 | 0.0 | 0.00 | 0.00 | 0.00 | 91 | 1002.5 |
| 20260504081250 | 7 | 35 | 0.0 | 0.0 | 0.00 | 0.00 | 0.00 | 90 | 1002.5 |
| 20260504080747 | 7 | 33 | 0.0 | 0.0 | 0.00 | 0.00 | 0.00 | 89 | 1002.6 |
| 20260504080244 | 7 | 33 | 0.0 | 0.0 | 0.00 | 0.00 | 0.00 | 88 | 1002.6 |
| 20260504070211 | 7 | 17 | 0.0 | 0.0 | 0.00 | 0.00 | 0.00 | 89 | 1003.2 |
| 20260504060132 | 10 | 6 | 0.0 | 0.0 | 0.00 | 0.00 | 0.00 | 80 | 1003.7 |
| 20260504050600 | 10 | 357 | 3.2 | 3.2 | 0.00 | 0.00 | 0.00 | 83 | 1004.0 |
| 20260504045554 | 8 | 6 | 1.6 | 1.6 | 0.00 | 0.00 | 0.00 | 95 | 1003.7 |
| 20260504045049 | 8 | 6 | 0.0 | 0.0 | 0.00 | 0.00 | 0.00 | 97 | 1003.7 |
| 20260504044547 | 8 | 218 | 0.0 | 0.0 | 0.00 | 0.00 | 0.00 | 97 | 1003.6 |
| 20260504044043 | 8 | 218 | 0.0 | 0.0 | 0.00 | 0.00 | 0.00 | 97 | 1003.6 |
| 20260504043540 | 8 | 218 | 0.0 | 0.0 | 0.00 | 0.00 | 0.00 | 97 | 1003.6 |
| 20260504043038 | 8 | 218 | 0.0 | 0.0 | 0.00 | 0.00 | 0.00 | 97 | 1003.3 |
| 20260504042535 | 8 | 219 | 0.0 | 0.0 | 0.00 | 0.00 | 0.00 | 96 | 1003.6 |
| 20260504042032 | 8 | 202 | 1.6 | 1.6 | 0.00 | 0.00 | 0.00 | 97 | 1003.7 |
| 20260504041527 | 8 | 203 | 1.6 | 1.6 | 0.00 | 0.00 | 0.00 | 97 | 1003.7 |
| 20260504041024 | 8 | 203 | 0.0 | 0.0 | 0.00 | 0.00 | 0.00 | 97 | 1003.6 |
| 20260504040521 | 8 | 172 | 0.0 | 1.6 | 0.00 | 0.00 | 0.00 | 97 | 1004.1 |
| 20260504040018 | 8 | 204 | 0.0 | 1.6 | 0.00 | 0.00 | 0.00 | 97 | 1003.9 |
| 20260504035515 | 8 | 175 | 1.6 | 1.6 | 0.00 | 0.00 | 0.00 | 97 | 1003.9 |
| 20260504035011 | 8 | 182 | 0.0 | 1.6 | 0.00 | 0.00 | 0.00 | 97 | 1003.9 |
| 20260504034509 | 8 | 195 | 0.0 | 1.6 | 0.00 | 0.00 | 0.00 | 97 | 1004.2 |
| 20260504034006 | 8 | 198 | 1.6 | 1.6 | 0.00 | 0.00 | 0.00 | 96 | 1004.0 |
| 20260504033504 | 8 | 160 | 0.0 | 0.0 | 0.00 | 0.00 | 0.00 | 96 | 1004.2 |
| 20260504033001 | 8 | 214 | 1.6 | 1.6 | 0.00 | 0.00 | 0.00 | 96 | 1004.2 |
| 20260504032457 | 8 | 228 | 0.0 | 0.0 | 0.00 | 0.00 | 0.00 | 95 | 1004.2 |
| 20260504031954 | 8 | 180 | 3.2 | 3.2 | 0.00 | 0.00 | 0.00 | 96 | 1004.2 |
| 20260504031451 | 8 | 192 | 1.6 | 1.6 | 0.00 | 0.00 | 0.00 | 96 | 1004.4 |
| 20260504030947 | 8 | 195 | 1.6 | 1.6 | 0.00 | 0.00 | 0.00 | 96 | 1004.2 |
| 20260504030445 | 7 | 198 | 0.0 | 1.6 | 0.00 | 0.00 | 0.00 | 96 | 1004.1 |
| 20260504025940 | 7 | 193 | 1.6 | 1.6 | 0.00 | 0.00 | 0.00 | 96 | 1004.1 |
| 20260504025437 | 7 | 157 | 4.8 | 4.8 | 0.00 | 0.00 | 0.00 | 96 | 1004.2 |
| 20260504024935 | 7 | 196 | 1.6 | 1.6 | 0.00 | 0.00 | 0.00 | 96 | 1004.1 |
| 20260504024432 | 7 | 208 | 1.6 | 1.6 | 0.00 | 0.00 | 0.00 | 96 | 1004.3 |
| 20260504023929 | 7 | 204 | 1.6 | 1.6 | 0.00 | 0.00 | 0.00 | 96 | 1004.3 |
| 20260504023425 | 7 | 172 | 1.6 | 1.6 | 0.00 | 0.00 | 0.00 | 96 | 1004.2 |
| 20260504022921 | 7 | 215 | 1.6 | 3.2 | 0.00 | 0.00 | 0.00 | 96 | 1004.2 |
| 20260504022417 | 7 | 193 | 1.6 | 3.2 | 0.00 | 0.00 | 0.00 | 96 | 1004.4 |
| 20260504021914 | 7 | 215 | 1.6 | 1.6 | 0.00 | 0.00 | 0.00 | 96 | 1004.3 |
| 20260504021411 | 7 | 158 | 3.2 | 3.2 | 0.00 | 0.00 | 0.00 | 96 | 1004.2 |
| 20260504020909 | 7 | 211 | 1.6 | 1.6 | 0.00 | 0.00 | 0.00 | 95 | 1004.2 |
| 20260504020405 | 7 | 230 | 4.8 | 4.8 | 0.00 | 0.00 | 0.00 | 94 | 1004.2 |
| 20260504015901 | 7 | 195 | 0.0 | 1.6 | 0.00 | 0.00 | 0.00 | 94 | 1004.0 |
| 20260504015358 | 7 | 199 | 1.6 | 3.2 | 0.00 | 0.00 | 0.00 | 93 | 1004.2 |
| 20260504014853 | 7 | 219 | 3.2 | 4.8 | 0.00 | 0.00 | 0.00 | 93 | 1004.0 |
| 20260504014350 | 7 | 164 | 4.8 | 8.0 | 0.00 | 0.00 | 0.00 | 93 | 1004.2 |
| 20260504013847 | 7 | 199 | 4.8 | 9.7 | 0.00 | 0.00 | 0.00 | 94 | 1004.0 |
| 20260504013345 | 7 | 186 | 3.2 | 4.8 | 0.00 | 0.00 | 0.00 | 94 | 1004.0 |
| 20260504012841 | 7 | 200 | 3.2 | 3.2 | 0.00 | 0.00 | 0.00 | 94 | 1003.8 |
| 20260504012339 | 7 | 221 | 8.0 | 11.3 | 0.00 | 0.00 | 0.00 | 94 | 1003.9 |
| 20260504011837 | 7 | 216 | 1.6 | 1.6 | 0.00 | 0.00 | 0.00 | 93 | 1003.7 |
| 20260504011333 | 7 | 176 | 8.0 | 8.0 | 0.00 | 0.00 | 0.00 | 93 | 1003.6 |
| 20260504010829 | 7 | 218 | 1.6 | 1.6 | 0.00 | 0.00 | 0.00 | 93 | 1003.7 |
| 20260504010325 | 7 | 244 | 3.2 | 4.8 | 0.00 | 0.00 | 0.00 | 93 | 1003.8 |
| 20260504005822 | 7 | 225 | 4.8 | 4.8 | 0.00 | 0.00 | 0.00 | 92 | 1003.8 |
| 20260504005319 | 7 | 223 | 4.8 | 4.8 | 0.00 | 0.00 | 0.00 | 92 | 1003.6 |
| 20260504004816 | 7 | 204 | 8.0 | 9.7 | 0.00 | 0.00 | 0.00 | 92 | 1003.9 |
| 20260504004314 | 7 | 132 | 6.4 | 9.7 | 0.00 | 0.00 | 0.00 | 92 | 1003.8 |
| 20260504003810 | 7 | 194 | 8.0 | 12.9 | 0.00 | 0.00 | 0.00 | 91 | 1003.8 |
| 20260504003307 | 7 | 211 | 4.8 | 8.0 | 0.00 | 0.00 | 0.00 | 91 | 1003.6 |
| 20260504002803 | 7 | 176 | 9.7 | 12.9 | 0.00 | 0.00 | 0.00 | 91 | 1003.7 |
| 20260504002300 | 7 | 180 | 9.7 | 12.9 | 0.00 | 0.00 | 0.00 | 91 | 1003.7 |
| 20260504001758 | 7 | 181 | 8.0 | 11.3 | 0.00 | 0.00 | 0.00 | 91 | 1003.8 |
| 20260504001255 | 7 | 221 | 4.8 | 8.0 | 0.00 | 0.00 | 0.00 | 91 | 1003.9 |
| 20260504000752 | 7 | 181 | 4.8 | 8.0 | 0.00 | 0.00 | 0.00 | 90 | 1003.8 |
| 20260504000248 | 7 | 178 | 4.8 | 11.3 | 0.00 | 0.00 | 0.00 | 90 | 1003.9 |
| 20260503235747 | 7 | 215 | 6.4 | 8.0 | 0.00 | 0.00 | 0.00 | 90 | 1003.8 |
| 20260503235243 | 7 | 258 | 3.2 | 3.2 | 0.00 | 0.00 | 0.00 | 90 | 1003.8 |
| 20260503234741 | 7 | 190 | 11.3 | 14.5 | 0.00 | 0.00 | 0.00 | 90 | 1003.8 |
| 20260503234239 | 7 | 175 | 9.7 | 11.3 | 0.00 | 0.00 | 0.00 | 89 | 1003.7 |
| 20260503233736 | 7 | 225 | 11.3 | 17.7 | 0.00 | 0.00 | 0.00 | 89 | 1003.8 |
| 20260503233232 | 7 | 217 | 9.7 | 11.3 | 0.00 | 0.00 | 0.00 | 89 | 1003.6 |
| 20260503232729 | 7 | 209 | 8.0 | 11.3 | 0.00 | 0.00 | 0.00 | 89 | 1003.6 |
| 20260503232226 | 7 | 172 | 8.0 | 9.7 | 0.00 | 0.00 | 0.00 | 89 | 1003.8 |
| 20260503231724 | 7 | 203 | 8.0 | 11.3 | 0.00 | 0.00 | 0.00 | 89 | 1003.8 |
| 20260503231221 | 7 | 204 | 6.4 | 9.7 | 0.00 | 0.00 | 0.00 | 89 | 1003.8 |
| 20260503230717 | 7 | 195 | 9.7 | 11.3 | 0.00 | 0.00 | 0.00 | 89 | 1003.9 |
| 20260503230214 | 8 | 186 | 8.0 | 11.3 | 0.00 | 0.00 | 0.00 | 88 | 1004.1 |
| 20260503225711 | 8 | 190 | 6.4 | 9.7 | 0.00 | 0.00 | 0.00 | 87 | 1004.1 |
| 20260503225206 | 8 | 237 | 6.4 | 9.7 | 0.00 | 0.00 | 0.00 | 88 | 1004.2 |
| 20260503224704 | 8 | 207 | 8.0 | 9.7 | 0.00 | 0.00 | 0.00 | 87 | 1003.9 |
| 20260503224201 | 8 | 178 | 6.4 | 9.7 | 0.00 | 0.00 | 0.00 | 87 | 1004.1 |
| 20260503223659 | 8 | 194 | 8.0 | 11.3 | 0.00 | 0.00 | 0.00 | 87 | 1004.0 |
| 20260503223155 | 8 | 181 | 8.0 | 14.5 | 0.00 | 0.00 | 0.00 | 86 | 1004.0 |
| 20260503222652 | 8 | 192 | 8.0 | 9.7 | 0.00 | 0.00 | 0.00 | 85 | 1004.2 |
| 20260503222150 | 8 | 236 | 8.0 | 11.3 | 0.00 | 0.00 | 0.00 | 86 | 1004.4 |
| 20260503221648 | 8 | 172 | 4.8 | 9.7 | 0.00 | 0.00 | 0.00 | 85 | 1004.6 |
| 20260503221145 | 8 | 197 | 6.4 | 9.7 | 0.00 | 0.00 | 0.00 | 86 | 1004.6 |
| 20260503220642 | 8 | 192 | 8.0 | 11.3 | 0.00 | 0.00 | 0.00 | 85 | 1004.4 |
| 20260503220138 | 8 | 195 | 8.0 | 9.7 | 0.00 | 0.00 | 0.00 | 87 | 1004.5 |
| 20260503215636 | 8 | 158 | 9.7 | 17.7 | 0.00 | 0.00 | 0.00 | 85 | 1004.5 |
| 20260503215132 | 8 | 208 | 4.8 | 8.0 | 0.00 | 0.00 | 0.00 | 85 | 1004.6 |
| 20260503214631 | 8 | 176 | 12.9 | 20.9 | 0.00 | 0.00 | 0.00 | 85 | 1004.4 |
| 20260503214126 | 8 | 193 | 9.7 | 11.3 | 0.00 | 0.00 | 0.00 | 85 | 1004.5 |
| 20260503213626 | 8 | 216 | 4.8 | 4.8 | 0.00 | 0.00 | 0.00 | 85 | 1004.6 |
| 20260503213122 | 8 | 197 | 6.4 | 9.7 | 0.00 | 0.00 | 0.00 | 85 | 1004.6 |
| 20260503212620 | 8 | 190 | 9.7 | 17.7 | 0.00 | 0.00 | 0.00 | 84 | 1004.6 |
| 20260503212117 | 8 | 181 | 8.0 | 11.3 | 0.00 | 0.00 | 0.00 | 84 | 1004.7 |
| 20260503211615 | 9 | 149 | 11.3 | 12.9 | 0.00 | 0.00 | 0.00 | 84 | 1004.9 |
| 20260503211110 | 8 | 227 | 4.8 | 4.8 | 0.00 | 0.00 | 0.00 | 85 | 1004.8 |
| 20260503210607 | 8 | 165 | 12.9 | 16.1 | 0.00 | 0.00 | 0.00 | 83 | 1005.0 |
| 20260503205559 | 9 | 222 | 9.7 | 17.7 | 0.00 | 0.00 | 0.00 | 83 | 1004.9 |
| 20260503205055 | 9 | 216 | 6.4 | 8.0 | 0.00 | 0.00 | 0.00 | 82 | 1004.9 |
| 20260503204552 | 9 | 224 | 8.0 | 12.9 | 0.00 | 0.00 | 0.00 | 83 | 1005.0 |
| 20260503204049 | 9 | 203 | 8.0 | 11.3 | 0.00 | 0.00 | 0.00 | 83 | 1005.1 |
| 20260503203546 | 9 | 200 | 6.4 | 11.3 | 0.00 | 0.00 | 0.00 | 83 | 1005.1 |
| 20260503203044 | 10 | 201 | 6.4 | 9.7 | 0.00 | 0.00 | 0.00 | 82 | 1005.3 |
| 20260503202542 | 9 | 180 | 11.3 | 16.1 | 0.00 | 0.00 | 0.00 | 81 | 1005.4 |
| 20260503202039 | 10 | 181 | 8.0 | 11.3 | 0.00 | 0.00 | 0.00 | 81 | 1005.5 |
| 20260503201537 | 10 | 227 | 9.7 | 12.9 | 0.00 | 0.00 | 0.00 | 79 | 1005.7 |
| 20260503201034 | 10 | 171 | 11.3 | 12.9 | 0.00 | 0.00 | 0.00 | 79 | 1005.7 |
| 20260503200530 | 10 | 170 | 9.7 | 12.9 | 0.00 | 0.00 | 0.00 | 80 | 1005.7 |
| 20260503200027 | 10 | 212 | 11.3 | 14.5 | 0.00 | 0.00 | 0.00 | 79 | 1005.8 |
| 20260503195524 | 10 | 232 | 11.3 | 14.5 | 0.00 | 0.00 | 0.00 | 79 | 1005.8 |
| 20260503195021 | 10 | 183 | 8.0 | 9.7 | 0.00 | 0.00 | 0.00 | 79 | 1005.9 |
| 20260503194518 | 12 | 166 | 6.4 | 8.0 | 0.00 | 0.00 | 0.00 | 73 | 1005.9 |
| 20260503194018 | 15 | 229 | 11.3 | 14.5 | 0.00 | 0.00 | 0.00 | 71 | 1006.2 |
| 20260503193515 | 17 | 172 | 6.4 | 11.3 | 0.00 | 0.00 | 0.00 | 57 | 1006.0 |
| 20260503193010 | 18 | 182 | 8.0 | 9.7 | 0.00 | 0.00 | 0.00 | 61 | 1006.1 |
| 20260503192506 | 18 | 197 | 6.4 | 8.0 | 0.00 | 0.00 | 0.00 | 55 | 1006.1 |
| 20260503192002 | 18 | 213 | 6.4 | 8.0 | 0.00 | 0.00 | 0.00 | 55 | 1006.1 |
| 20260503191459 | 17 | 243 | 4.8 | 4.8 | 0.00 | 0.00 | 0.00 | 56 | 1006.3 |
| 20260503190956 | 18 | 165 | 4.8 | 11.3 | 0.00 | 0.00 | 0.00 | 56 | 1006.2 |
| 20260503190453 | 18 | 239 | 8.0 | 11.3 | 0.00 | 0.00 | 0.00 | 53 | 1006.1 |
| 20260503185950 | 18 | 243 | 8.0 | 9.7 | 0.00 | 0.00 | 0.00 | 55 | 1006.5 |
| 20260503185446 | 18 | 186 | 8.0 | 12.9 | 0.00 | 0.00 | 0.00 | 54 | 1006.6 |
| 20260503184946 | 18 | 240 | 4.8 | 4.8 | 0.00 | 0.00 | 0.00 | 54 | 1006.6 |
| 20260503184443 | 18 | 218 | 8.0 | 11.3 | 0.00 | 0.00 | 0.00 | 54 | 1006.4 |
| 20260503183939 | 18 | 234 | 8.0 | 11.3 | 0.00 | 0.00 | 0.00 | 54 | 1006.5 |
| 20260503183436 | 18 | 235 | 6.4 | 9.7 | 0.00 | 0.00 | 0.00 | 56 | 1006.8 |
| 20260503182933 | 17 | 216 | 9.7 | 12.9 | 0.00 | 0.00 | 0.00 | 57 | 1006.9 |
| 20260503182432 | 17 | 204 | 6.4 | 11.3 | 0.00 | 0.00 | 0.00 | 56 | 1007.0 |
| 20260503181929 | 17 | 220 | 4.8 | 8.0 | 0.00 | 0.00 | 0.00 | 57 | 1007.1 |
| 20260503181426 | 17 | 228 | 9.7 | 12.9 | 0.00 | 0.00 | 0.00 | 56 | 1007.0 |
| 20260503180921 | 17 | 240 | 4.8 | 11.3 | 0.00 | 0.00 | 0.00 | 56 | 1007.0 |
| 20260503180420 | 17 | 276 | 11.3 | 14.5 | 0.00 | 0.00 | 0.00 | 56 | 1007.1 |
| 20260503175916 | 17 | 305 | 4.8 | 4.8 | 0.00 | 0.00 | 0.00 | 56 | 1007.2 |
| 20260503175415 | 17 | 170 | 4.8 | 8.0 | 0.00 | 0.00 | 0.00 | 56 | 1007.3 |
| 20260503174910 | 17 | 272 | 6.4 | 8.0 | 0.00 | 0.00 | 0.00 | 55 | 1007.5 |
| 20260503174408 | 17 | 228 | 4.8 | 8.0 | 0.00 | 0.00 | 0.00 | 55 | 1007.3 |
| 20260503173903 | 17 | 223 | 14.5 | 17.7 | 0.00 | 0.00 | 0.00 | 56 | 1007.3 |
| 20260503173359 | 17 | 222 | 6.4 | 12.9 | 0.00 | 0.00 | 0.00 | 56 | 1007.6 |
| 20260503172856 | 17 | 234 | 11.3 | 14.5 | 0.00 | 0.00 | 0.00 | 55 | 1007.5 |
| 20260503172354 | 17 | 187 | 4.8 | 4.8 | 0.00 | 0.00 | 0.00 | 57 | 1007.6 |
| 20260503171849 | 17 | 239 | 6.4 | 9.7 | 0.00 | 0.00 | 0.00 | 55 | 1007.7 |
| 20260503171346 | 16 | 194 | 3.2 | 3.2 | 0.00 | 0.00 | 0.00 | 58 | 1007.7 |
| 20260503170844 | 16 | 231 | 4.8 | 9.7 | 0.00 | 0.00 | 0.00 | 57 | 1007.9 |
| 20260503170340 | 16 | 232 | 4.8 | 8.0 | 0.00 | 0.00 | 0.00 | 57 | 1007.8 |
| 20260503150733 | 13 | 239 | 4.8 | 4.8 | 0.00 | 0.00 | 0.00 | 61 | 1009.0 |
| 20260503150229 | 13 | 206 | 4.8 | 4.8 | 0.00 | 0.00 | 0.00 | 61 | 1009.1 |
| 20260503140153 | 11 | 188 | 1.6 | 1.6 | 0.00 | 0.00 | 0.00 | 69 | 1009.7 |
| 20260503131123 | 10 | 220 | 3.2 | 3.2 | 0.00 | 0.00 | 0.00 | 73 | 1009.4 |
| 20260503130620 | 10 | 142 | 1.6 | 1.6 | 0.00 | 0.00 | 0.00 | 73 | 1009.6 |
| 20260503130118 | 10 | 238 | 1.6 | 1.6 | 0.00 | 0.00 | 0.00 | 73 | 1009.7 |
| 20260503110510 | 10 | 297 | 6.4 | 8.0 | 0.00 | 0.00 | 0.00 | 62 | 1010.6 |
| 20260503090402 | 7 | 183 | 3.2 | 3.2 | 0.00 | 0.00 | 0.00 | 83 | 1011.0 |